STARLINK-33596 (62758 NORAD) Tracking and Keplerian Element Data

This shows tracking and keplerian element data for the satellite.

Feedback or suggestion? Click here.




ElementValue
Catalog62758
NameSTARLINK-33596
Epoch Orbit333
Epoch Day35.25001157
Epoch Year2025
RAAN18.5592
Inclination53.159
Eccentricity8.62E-05
Argument of Perigee83.4565
Mean Anonmoly248.6819
Mean Motion15.74075398
Decay Rate0.00082161
L11 62758U 25015A 25035.25001157 .00082161 00000+0 56257-3 0 9992
L22 62758 53.1590 18.5592 0000862 83.4565 248.6819 15.74075398 3336



Live tracking and technical data element details for STARLINK-33596 (NORAD 62758). STARLINK-33596 can be tracked NOW for your location showing map with azimuth and elevation plus other details from your city location.







IsCatalogInMostPopularTable: catalog: 62758, numindb: 192
Update: records affected: 1



GetName: 62758 STARLINK-33596

Hit Count: updated at: Mon, 17 Nov 2025 18:56:28 GMT